SCP
1 1 0 0 0 0 0 0 0 0 0 0 0 0 0 0 0 0 0 0 0 0 0 0 0 0 0 0 0 0 0 0 0 0 0 0 0 0 0 0 0 0 0
1 1 0 0 0 0 0 0 0 0 0 0 0 0 0 0 0 0 0 0 0 0 0 0 0 0 0 0 0 0 0 0 0 0 0 0 0 0 0 0 0 0 0
1 1 0 0 0 0 0 0 0 0 0 0 0 0 0 0 0 0 0 0 0 0 0 0 0 0 0 0 0 0 0 0 0 0 0 0 0 0 0 0 0 0 0
0 0 0 0 0 0 0 0 0 0 0 0 0 0 0 0 0 0 0 0 0 0 0 0 0 0 0 0 0 0 0 0 0 0 0 0 0 0 0 0 0 0 0
0 0 0 0 0 0 0 0 0 0 0 0 0 0 0 0 0 0 0 0 0 0 0 0 0 0 0 0 0 0 0 0 0 0 0 0 0 0 0 0 0 0 0
0 0 0 0 0 0 0 0 0 0 0 0 0 0 0 0 0 0 0 0 0 0 0 0 0 0 0 0 0 0 0 0 0 0 0 0 0 0 0 0 0 0 0
0 0 0 0 0 0 0 0 0 0 0 0 0 0 0 0 0 0 0 0 0 0 0 0 0 0 0 0 0 0 0 0 0 0 0 0 0 0 0 0 0 0 0
0 0 0 0 0 0 0 0 0 0 0 0 0 0 0 0 0 0 0 0 0 0 0 0 0 0 0 0 0 0 0 0 0 0 0 0 0 0 0 0 0 0 0
0 0 0 0 0 0 0 0 0 0 0 0 0 0 0 0 0 0 0 0 0 0 0 0 0 0 0 0 0 0 0 0 0 0 0 0 0 0 0 0 0 0 0
0 0 0 0 0 0 0 0 0 0 0 0 0 0 0 0 0 0 0 0 0 0 0 0 0 0 0 0 0 0 0 0 0 0 0 0 0 0 0 0 0 0 0
0 0 0 0 0 0 0 0 0 0 0 0 0 0 0 0 0 0 0 0 0 0 0 0 0 0 0 0 0 0 0 0 0 0 0 0 0 0 0 0 0 0 0
0 0 0 0 0 0 0 0 0 0 0 0 0 0 0 0 0 0 0 0 0 0 0 0 0 0 0 0 0 0 0 0 0 0 0 0 0 0 0 0 0 0 0
0 0 0 0 0 0 0 0 0 0 0 0 0 0 0 0 0 0 0 0 0 0 0 0 0 0 0 0 0 0 0 0 0 0 0 0 0 0 0 0 0 0 0
0 0 0 0 0 0 0 0 0 0 0 0 0 0 0 0 0 0 0 0 0 0 0 0 0 0 0 0 0 0 0 0 0 0 0 0 0 0 0 0 0 0 0
0 0 0 0 0 0 0 0 0 0 0 0 0 0 0 0 0 0 0 0 0 0 0 0 0 0 0 0 0 0 0 0 0 0 0 0 0 0 0 0 0 0 0
0 0 0 0 0 0 0 0 0 0 0 0 0 0 0 0 0 0 0 0 0 0 0 0 0 0 0 0 0 0 0 0 0 0 0 0 0 0 0 0 0 0 0
0 0 0 0 0 0 0 0 0 0 0 0 0 0 0 0 0 0 0 0 0 0 0 0 0 0 0 0 0 0 0 0 0 0 0 0 0 0 0 0 0 0 0
0 0 0 0 0 0 0 0 0 0 0 0 0 0 0 0 0 0 0 0 0 0 0 0 0 0 0 0 0 0 0 0 0 0 0 0 0 0 0 0 0 0 0
0 0 0 0 0 0 0 0 0 0 0 0 0 0 0 0 0 0 0 0 0 0 0 0 0 0 0 0 0 0 0 0 0 0 0 0 0 0 0 0 0 0 0
0 0 0 0 0 0 0 0 0 0 0 0 0 0 0 0 0 0 0 0 0 0 0 0 0 0 0 0 0 0 0 0 0 0 0 0 0 0 0 0 0 0 0
0 0 0 0 0 0 0 0 0 0 0 0 0 0 0 0 0 0 0 0 0 0 0 0 0 0 0 0 0 0 0 0 0 0 0 0 0 0 0 0 0 0 0
0 0 0 0 0 0 0 0 0 0 0 0 0 0 0 0 0 0 0 0 0 0 0 0 0 0 0 0 0 0 0 0 0 0 0 0 0 0 0 0 0 0 0
0 0 0 0 0 0 0 0 0 0 0 0 0 0 0 0 0 0 0 0 0 0 0 0 0 0 0 0 0 0 0 0 0 0 0 0 0 0 0 0 0 0 0
0 0 0 0 0 0 0 0 0 0 0 0 0 0 0 0 0 0 0 0 0 0 0 0 0 0 0 0 0 0 0 0 0 0 0 0 0 0 0 0 0 0 0
0 0 0 0 0 0 0 0 0 0 0 0 0 0 0 0 0 0 0 0 0 0 0 0 0 0 0 0 0 0 0 0 0 0 0 0 0 0 0 0 0 0 0
0 0 0 0 0 0 0 0 0 0 0 0 0 0 0 0 0 0 0 0 0 0 0 0 0 0 0 0 0 0 0 0 0 0 0 0 0 0 0 0 0 0 0
Wind_Speed
3 3 3 3 3 3 3 4 4 3 4 4 4 5 5 5 5 5 5 5 6 6 5 6 7 6 4 4 4 4 5 4 7 5 3 3 3 3 3 2 2 2 3
2 2 3 2 2 3 3 3 3 3 4 4 4 4 5 5 5 5 6 6 6 7 7 7 8 5 6 5 4 5 5 5 6 7 4 3 4 3 3 3 2 2 2
1 1 1 2 2 3 3 2 2 3 3 3 3 4 5 5 5 6 6 6 6 7 7 7 7 6 7 5 6 6 5 5 5 5 5 3 2 2 2 2 2 2 2
0 1 1 2 2 2 2 2 2 2 2 3 4 4 4 4 4 5 5 6 6 6 6 7 7 7 7 7 6 6 5 5 4 5 5 3 3 2 1 2 3 2 2
0 0 1 1 1 1 1 1 1 1 2 2 2 3 3 3 3 4 4 5 6 6 6 6 6 6 8 7 5 5 5 5 4 4 5 3 3 2 2 2 3 3 3
0 1 1 1 1 1 1 0 0 1 1 1 1 2 2 3 5 6 5 4 5 5 5 5 5 5 6 9 10 8 7 6 6 5 5 5 5 4 3 2 2 2 3
0 1 1 1 1 1 1 0 1 1 1 1 2 2 2 4 5 6 6 4 4 5 5 5 4 4 5 5 6 8 8 9 9 7 7 6 5 4 3 3 4 4 4
1 1 1 1 2 1 1 1 1 1 1 2 2 2 3 4 5 6 6 4 3 4 4 4 4 4 4 4 4 4 5 6 7 7 7 6 5 4 4 5 5 4 3
1 2 2 1 2 1 1 2 1 1 1 2 2 2 2 4 5 5 5 2 3 4 4 3 3 4 5 5 4 4 5 5 5 6 7 6 6 5 3 2 2 2 3
2 2 2 1 1 2 2 2 2 1 2 2 2 2 3 3 5 5 4 2 3 3 3 4 4 5 6 6 4 4 5 5 3 2 4 5 5 4 5 4 4 4 3
2 2 2 2 2 2 2 1 1 1 1 2 2 2 2 3 4 5 4 2 2 3 3 3 3 6 7 7 5 4 5 4 3 3 3 2 2 2 3 3 3 4 5
2 1 2 2 2 1 1 1 1 1 1 2 2 3 2 2 3 5 6 5 4 3 4 3 4 7 7 6 4 4 4 3 2 2 2 3 3 3 3 3 4 4 5
2 2 2 2 2 2 1 1 1 0 1 1 2 2 3 3 3 5 5 5 6 3 3 5 6 6 5 4 3 3 2 1 1 2 2 3 3 2 2 2 3 3 4
2 2 2 1 2 2 1 1 1 1 1 2 2 3 3 3 3 2 2 2 3 3 3 3 4 4 3 3 2 1 1 1 2 2 2 2 2 1 2 2 2 2 2
2 2 2 1 1 2 2 2 2 2 3 3 3 3 3 3 4 6 4 2 2 3 2 1 1 1 2 2 2 1 1 1 2 2 2 2 2 2 2 1 2 2 2
2 2 2 1 1 1 2 2 3 3 4 4 4 4 4 5 7 6 5 5 4 3 1 1 1 1 2 2 2 2 2 2 2 2 2 2 2 2 2 2 1 2 3
3 2 2 1 1 1 1 2 3 4 3 3 4 5 5 5 6 5 4 4 2 2 1 1 1 2 2 2 2 2 3 3 2 2 2 2 2 2 2 2 2 2 3
3 3 2 2 2 2 2 2 2 2 3 3 3 5 6 6 5 4 4 2 1 1 0 1 2 2 2 2 2 3 3 2 2 2 2 2 2 2 2 2 2 3 3
3 2 2 2 2 2 2 2 2 2 3 3 3 3 4 5 5 4 2 0 1 2 2 2 2 2 3 2 3 2 2 2 2 2 2 2 2 2 2 2 2 3 3
2 3 2 2 1 1 1 1 2 2 2 3 3 3 2 2 2 2 1 1 2 2 3 3 3 3 3 3 3 2 2 2 2 2 2 2 2 2 2 3 2 2 3
2 2 2 2 2 2 2 2 2 2 3 3 3 4 5 2 2 3 3 2 3 3 3 3 3 3 3 3 3 3 3 3 3 3 2 2 2 2 2 2 2 2 2
2 2 2 2 2 2 2 2 3 3 3 4 3 3 5 2 2 3 3 3 3 3 3 3 3 3 3 3 3 3 3 3 3 3 3 2 2 2 2 2 1 1 1
2 2 2 2 2 2 2 2 3 3 3 3 3 3 3 3 3 3 4 4 3 3 3 3 3 4 3 3 3 4 4 5 4 4 3 3 2 2 2 1 1 1 1
2 2 2 2 2 2 3 3 3 3 4 4 3 4 4 4 4 4 4 4 4 4 3 3 4 5 6 4 4 4 4 5 4 4 4 3 3 2 2 1 1 2 1
2 2 2 2 3 3 3 3 3 4 4 4 4 4 4 4 4 4 4 4 4 4 5 5 4 5 6 7 6 5 6 7 5 3 3 3 3 2 2 2 2 1 1
2 2 2 2 3 3 3 4 4 4 4 4 4 4 4 4 4 4 4 4 4 4 5 4 5 6 7 6 6 6 6 6 5 4 3 2 2 2 2 2 2 2 2
Wind_Direction
205 206 205 205 203 200 207 215 217 215 209 212 216 216 218 217 215 218 226 223 225 233 231 232 239 234 233 232 229 230 232 231 256 270 254 266 266 276 290 272 260 262 274
224 203 208 207 193 199 218 224 219 222 220 220 218 220 223 221 216 220 228 228 228 234 235 235 240 236 236 235 233 235 235 230 242 265 270 260 252 264 279 279 279 268 266
244 195 206 209 202 213 225 227 223 224 226 225 218 224 228 227 225 226 229 233 234 237 237 238 242 236 239 237 235 237 238 238 236 251 265 258 256 262 281 286 286 278 277
8 154 220 235 226 227 226 225 227 224 226 229 227 231 234 234 235 235 235 240 242 244 244 243 243 236 241 240 237 236 235 235 237 247 258 264 260 260 256 265 287 280 279
44 36 282 275 246 237 236 238 240 238 244 241 238 244 246 242 245 247 244 244 245 250 251 249 248 245 245 243 240 235 226 229 232 240 250 258 257 247 247 240 263 287 279
40 326 330 338 322 291 279 283 292 282 281 279 261 256 260 265 279 268 262 256 252 251 256 257 253 245 251 251 250 244 229 227 230 231 240 244 250 242 246 242 257 284 283
333 342 346 338 332 314 313 332 292 283 302 296 284 275 273 286 294 286 273 266 261 259 259 261 262 258 250 255 256 254 248 244 235 230 239 242 242 232 226 240 237 239 249
339 340 343 337 321 325 325 282 284 284 272 273 282 278 283 302 311 309 294 273 270 268 264 261 262 268 260 259 253 255 254 252 244 236 240 246 242 230 217 226 233 244 252
331 320 319 320 321 320 303 285 280 284 284 279 285 283 285 301 314 317 312 286 283 283 280 271 264 269 275 272 256 257 265 266 258 245 244 247 246 242 220 202 211 224 259
301 301 304 308 302 289 280 284 291 281 281 290 300 290 284 294 309 314 314 292 290 293 291 281 267 276 277 267 252 251 263 267 259 257 248 259 256 254 237 222 217 220 235
318 323 324 319 300 294 295 301 307 300 301 299 299 301 292 292 301 306 309 301 292 292 292 292 287 287 281 273 263 256 263 269 259 252 253 253 252 247 242 231 224 218 224
334 334 325 322 320 325 318 312 307 281 287 301 313 315 312 312 312 305 303 307 311 284 283 290 292 295 291 283 278 276 276 275 265 257 258 261 259 256 253 241 231 230 231
333 322 319 327 332 333 313 295 291 272 264 288 295 298 310 316 309 309 301 305 311 299 288 293 299 299 303 299 303 300 287 276 267 262 265 265 261 257 253 248 240 239 245
303 305 313 318 326 334 324 296 261 249 258 273 279 286 296 300 304 312 303 303 308 304 299 297 301 310 319 325 325 317 299 269 260 267 278 281 283 269 257 247 249 258 257
285 292 298 295 296 305 304 283 269 249 244 251 256 261 274 285 296 306 307 301 298 291 307 324 339 339 341 340 332 320 308 301 290 291 283 288 289 285 278 273 252 245 247
276 280 275 278 283 289 303 315 306 289 296 291 297 299 289 294 308 305 306 313 319 330 347 292 297 298 299 299 299 302 302 296 288 280 273 274 278 278 282 279 266 253 258
246 259 263 264 270 277 284 295 312 321 314 304 311 313 308 311 314 313 317 321 330 22 38 279 282 281 283 284 282 280 280 285 283 272 272 276 277 273 274 276 274 270 268
246 249 250 248 252 257 261 267 275 291 307 307 311 311 315 316 318 321 326 345 334 357 281 259 268 272 277 277 275 277 282 289 287 279 273 270 264 261 265 267 266 266 270
243 241 241 244 246 251 258 261 262 266 272 284 301 308 316 317 318 328 353 58 245 268 271 268 268 271 272 271 271 273 272 272 277 276 271 267 262 256 260 262 265 268 268
240 242 234 231 237 241 250 257 261 262 267 272 278 288 306 321 313 312 310 270 253 256 256 258 262 261 261 261 262 263 269 270 270 268 268 265 260 255 258 259 259 260 263
231 230 221 223 231 233 236 244 249 252 258 267 269 274 292 280 267 269 266 260 252 255 257 258 260 262 262 261 259 259 258 262 260 258 260 258 252 251 260 263 260 262 267
218 222 219 223 234 240 241 243 246 248 252 261 273 278 288 282 262 262 263 264 263 258 255 253 257 255 252 254 256 258 259 261 260 258 258 257 253 251 248 252 260 263 271
207 215 232 236 232 242 249 244 244 247 253 257 262 268 264 260 259 260 264 268 267 265 261 251 253 259 256 251 247 246 249 249 246 241 244 249 247 242 234 237 247 254 269
210 211 224 238 239 239 245 251 251 251 252 256 256 257 258 260 262 263 265 267 267 266 261 255 252 256 261 264 259 253 254 256 245 234 230 232 233 230 225 224 234 237 247
215 218 224 232 236 242 249 253 254 253 252 253 255 257 261 262 264 264 264 264 266 267 267 264 259 253 252 254 256 256 257 263 259 240 224 220 217 211 208 214 224 229 236
229 230 236 239 241 241 243 251 255 257 255 255 254 254 258 262 264 265 264 262 267 272 273 270 264 262 256 253 252 256 256 256 247 226 205 198 200 201 195 203 205 214 220